星链-35692(STARLINK-35692)

导读

STARLINK-35692是美国SpaceX星链计划的卫星,于2025年11月15日发射。星链项目旨在构建全球卫星互联网星座,该卫星延续星链设计,通过低轨道部署,为全球偏远区域、海运航空等场景提供宽带网络服务,进一步扩充星链星座的覆盖范围与服务容量,助力星链网络持续完善全球连接能力。

基本信息
目录编号:
66513
目录名称:
STARLINK-35692
国际标识:
2025-263AE
轨道中心:
EARTH
卫星名称:
星链-35692
卫星全名:
星链-35692(STARLINK-35692)
卫星状态:
在轨 (已飞行210 天)
发射日期:
2025-11-15 UTC
国别 :
美国 (US)
星等 :
--
轨道信息
数据来源 国际轨道数据
星历时间: 2026-06-10T03:07:11+0800
3天前
查看轨道信息
半长轴: 6861.11km
偏心率: 0.000227
轨道倾角: 43.003°
近地点辐角 273.074°
升交点赤经 190.675°
平近点角 86.985°
近地点: 481.415km
远地点: 484.531km
周期: 94.265分钟
每日圈数: 15.276056
详细信息
固有亮度:
5
最大亮度:
2.5
卫星平台:
Starlink V1.0
覆盖范围:
全球
运营商:
太空探索技术公司
运营商所在国:
美国
制造商(研发单位):
太空探索技术公司
制造商所在国:
美国
使用方式:
暂无
卫星简介
Starlink 计划是 SpaceX 推出的全球卫星互联网项目,通过发射低轨道卫星,为全球尤其是偏远地区提供高速、低延迟的互联网服务。自 2019 年起,Starlink 已部署数千颗卫星,旨在缩小全球数字鸿沟,推动互联网普及。该项目还为军事、航空等行业提供通信支持,带来广泛经济效益。
2D轨道图
3D轨道图
轨道高度分析图
轨道倾角分析图
轨道综合分析图
查看轨道综合分析图